Location: Melbourne
(37.8666°S, 145.1333°E)
Time: 23:59:03
(UTC+10:00)

Amateur Radio Satellites - All Passes

Search period start: 23 August 2017 23:29
Search period end: 24 August 2017 23:29
Location: Melbourne, 37.8666°S, 145.1333°E

Satellite Date Start Highest point End Downlink Frequencies (MHz)
Time Altitude Azimuth
DUCHIFAT 1 23 Aug 23:30:01 23:34:16 74° 104° (ESE) 23:38:36 145.980
Oscar 19 23 Aug 23:43:17 23:46:10 15° 118° (ESE) 23:49:04 437.125/150
JUGNU 23 Aug 23:47:34 23:49:51 12° 355° (N) 23:52:09 437.505
SRMSAT 24 Aug 00:04:54 00:06:13 11° 10° (N) 00:07:32 437.500
NANOSAT C BR1 24 Aug 00:17:16 00:20:55 27° 276° (W) 00:24:38 145.865
AO-85 24 Aug 00:21:31 00:25:12 20° 135° (SE) 00:28:41 145.980
POLYITAN 1 24 Aug 00:25:01 00:28:17 21° 274° (W) 00:31:34 437.675
BEESAT 3 24 Aug 00:34:25 00:37:50 29° 127° (SE) 00:41:14 437.485
SPROUT 24 Aug 00:40:49 00:45:12 73° 78° (ENE) 00:49:31 437.525
EO-79 24 Aug 00:41:12 00:43:28 14° 272° (W) 00:45:44 145.935-145.965
QB50P2 24 Aug 00:41:55 00:43:48 13° 271° (W) 00:45:41 145.880/145.840
DX 1 24 Aug 00:47:31 00:50:27 17° 86° (E) 00:53:21 434.975-435.025
VELOX 1 24 Aug 00:53:15 00:57:46 77° 78° (ENE) 01:02:15 145.980
BEESAT 2 24 Aug 00:55:02 00:57:37 17° 132° (SE) 01:00:12 435.950
BUGSAT 1 24 Aug 00:55:09 00:59:06 42° 279° (W) 01:03:11 437.445
AO-7 24 Aug 00:59:27 01:04:19 17° 129° (SE) 01:09:12 .
ESTCUBE 1 24 Aug 00:59:30 01:02:40 19° 247° (WSW) 01:05:50 437.505/2401.250
RS-15 24 Aug 01:10:31 01:19:17 27° 214° (SSW) 01:28:10 29.354- 29.394
Gurwin Techsat 1B 24 Aug 01:14:50 01:20:09 73° 105° (ESE) 01:25:32 435.225
Oscar 19 24 Aug 01:19:44 01:24:53 65° 282° (WNW) 01:30:06 437.125/150
50 SAT 24 Aug 01:20:38 01:24:05 61° 79° (E) 01:27:29 437.505
Tancredo 1 24 Aug 01:40:00 01:42:24 22° 150° (SSE) 01:44:47 437.200
SRMSAT 24 Aug 01:51:45 01:54:31 13° 359° (N) 01:57:17 437.500
UKube-1 24 Aug 01:55:04 01:59:28 65° 78° (ENE) 02:03:47 .
ISS 24 Aug 01:59:42 02:01:39 14° 159° (SSE) 02:03:36 437.550
AO-85 24 Aug 02:01:15 02:06:02 52° 296° (WNW) 02:10:24 145.980
nSIGHT-1 24 Aug 02:04:22 02:06:27 15° 157° (SSE) 02:08:32 .
BEESAT 3 24 Aug 02:12:19 02:15:12 20° 292° (WNW) 02:18:04 437.485
DX 1 24 Aug 02:22:37 02:26:45 39° 251° (WSW) 02:30:51 434.975-435.025
ITUPSAT 1 24 Aug 02:27:20 02:30:05 15° 88° (E) 02:32:48 437.325
BEESAT 2 24 Aug 02:31:52 02:35:30 39° 295° (WNW) 02:39:09 435.950
YUBILEINY 24 Aug 02:36:43 02:44:37 39° 94° (E) 02:52:34 435.215
ITAMSAT 1 24 Aug 02:45:11 02:50:16 56° 108° (ESE) 02:55:27 435.822/435.867
MOZHAYETS 4 24 Aug 02:47:22 02:50:54 21° 86° (E) 02:54:23
AO-7 24 Aug 02:47:28 02:55:45 79° 110° (ESE) 03:04:08 .
Gurwin Techsat 1B 24 Aug 02:58:25 03:00:35 12° 270° (W) 03:02:48 435.225
Tancredo 1 24 Aug 03:14:54 03:17:37 32° 314° (NW) 03:20:17 437.200
BEESAT 24 Aug 03:27:03 03:31:54 67° 78° (ENE) 03:36:39 436.000
RS-15 24 Aug 03:31:27 03:37:19 15° 177° (S) 03:43:16 29.354- 29.394
UKube-1 24 Aug 03:33:34 03:34:53 11° 243° (WSW) 03:36:11 .
ISS 24 Aug 03:35:16 03:38:37 76° 141° (SE) 03:41:57 437.550
nSIGHT-1 24 Aug 03:39:55 03:43:15 90° 18° (NNE) 03:46:33 .
SRMSAT 24 Aug 03:42:14 03:42:48 10° 349° (N) 03:43:23 437.500
ITUPSAT 1 24 Aug 04:03:28 04:08:11 52° 253° (WSW) 04:12:51 437.325
KKS-1 24 Aug 04:15:27 04:18:03 15° 88° (E) 04:20:39 437.445
MOZHAYETS 4 24 Aug 04:23:55 04:28:05 34° 250° (WSW) 04:32:13
ITAMSAT 1 24 Aug 04:26:53 04:30:03 16° 272° (W) 04:33:16 435.822/435.867
DOVE 4 24 Aug 04:27:20 04:31:10 36° 109° (ESE) 04:35:10 437.250
YUBILEINY 24 Aug 04:33:05 04:41:14 42° 255° (WSW) 04:49:33 435.215
LilacSat-2 24 Aug 04:41:03 04:43:29 16° 112° (ESE) 04:45:54 437.200
XW-2D 24 Aug 04:41:39 04:44:00 16° 112° (ESE) 04:46:21 145.860 - 145.880
AO-7 24 Aug 04:43:36 04:49:16 20° 273° (W) 04:54:59 .
STARS 24 Aug 04:46:19 04:48:22 13° 88° (E) 04:50:24 437.465
CUBESAT XI-V 24 Aug 04:50:52 04:55:34 89° 244° (WSW) 05:00:13 437.345
XW-2B 24 Aug 04:52:14 04:55:04 20° 111° (ESE) 04:57:56 145.730 - 145.750
BEESAT 24 Aug 05:06:51 05:09:03 13° 242° (WSW) 05:11:14 436.000
XW-2C 24 Aug 05:10:42 05:14:12 33° 108° (ESE) 05:17:44 145.795 - 145.815
HO-68 24 Aug 05:13:25 05:18:20 20° 122° (ESE) 05:23:17 435.675
CUTE-I 24 Aug 05:14:49 05:19:45 40° 110° (ESE) 05:24:46 437.470
XW-2F 24 Aug 05:20:15 05:23:53 41° 106° (ESE) 05:27:33 145.980 - 146.000
O/OREOS (USA 219) 24 Aug 05:20:50 05:22:48 13° 126° (SE) 05:24:47 437.305
KAITUO 1B 24 Aug 05:40:14 05:43:59 59° 105° (ESE) 05:47:46 145.475/437.950
RS-15 24 Aug 05:45:31 05:55:02 31° 142° (SE) 06:04:50 29.354- 29.394
KKS-1 24 Aug 05:50:27 05:54:49 46° 252° (WSW) 05:59:09 437.445
CUBEBUG 2 24 Aug 05:56:05 05:58:16 13° 117° (ESE) 06:00:31 437.445
SEEDS 24 Aug 05:57:10 05:59:12 13° 114° (ESE) 06:01:15 437.485
DOVE 4 24 Aug 06:06:20 06:09:01 16° 272° (W) 06:11:47 437.250
NUDT-PHONESAT 24 Aug 06:08:29 06:12:13 58° 280° (W) 06:15:59 437.300
LilacSat-2 24 Aug 06:13:54 06:17:27 33° 277° (W) 06:21:01 437.200
XW-2D 24 Aug 06:14:20 06:17:52 34° 277° (W) 06:21:26 145.860 - 145.880
STARS 24 Aug 06:20:36 06:24:59 53° 253° (WSW) 06:29:20 437.465
XW-2A 24 Aug 06:25:03 06:27:34 19° 110° (ESE) 06:30:06 145.665 - 145.685
XW-2B 24 Aug 06:25:49 06:29:04 26° 276° (W) 06:32:21 145.730 - 145.750
AAUSAT CUBESAT 2 24 Aug 06:33:16 06:35:38 15° 114° (ESE) 06:38:00 437.432
STRAND 1 24 Aug 06:35:46 06:38:39 15° 89° (E) 06:41:31 437.568
XW-2C 24 Aug 06:46:12 06:48:28 15° 273° (W) 06:50:45 145.795 - 145.815
CUTE 1.7 + AOD 2 24 Aug 06:48:07 06:52:25 85° 107° (ESE) 06:56:44 437.475
CUTE-I 24 Aug 06:55:37 06:59:53 24° 275° (W) 07:04:13 437.470
XW-2F 24 Aug 06:56:39 06:58:11 12° 272° (W) 06:59:43 145.980 - 146.000
HO-68 24 Aug 06:58:01 07:05:14 78° 284° (WNW) 07:12:33 435.675
O/OREOS (USA 219) 24 Aug 06:58:09 07:02:43 67° 288° (WNW) 07:07:11 437.305
Oscar 11 24 Aug 07:15:46 07:18:44 18° 113° (ESE) 07:21:43 .
UWE-3 24 Aug 07:16:10 07:20:41 53° 106° (ESE) 07:25:19 435.000/436.395/437.385
CUBEBUG 2 24 Aug 07:29:39 07:34:15 64° 280° (W) 07:39:02 437.445
SEEDS 24 Aug 07:30:19 07:34:25 49° 279° (W) 07:38:34 437.485
ZACube-1 24 Aug 07:49:05 07:53:38 67° 104° (ESE) 07:58:18 437.345
XW-2A 24 Aug 07:57:25 08:00:09 21° 275° (W) 08:02:54 145.665 - 145.685
RS-15 24 Aug 07:57:31 08:08:51 86° 298° (WNW) 08:20:42 29.354- 29.394
AAUSAT CUBESAT 2 24 Aug 08:06:46 08:10:42 41° 278° (W) 08:14:40 437.432
AO-73 24 Aug 08:08:23 08:12:59 84° 281° (W) 08:17:40 145.935
STRAND 1 24 Aug 08:13:02 08:18:12 60° 253° (WSW) 08:23:17 437.568
EO-88 24 Aug 08:41:15 08:43:56 19° 111° (ESE) 08:46:38 145.990 - 145.960
DELFI C3 24 Aug 08:44:28 08:48:08 38° 107° (ESE) 08:51:49 145.870
Oscar 11 24 Aug 08:50:28 08:54:33 38° 278° (W) 08:58:40 .
HO-68 24 Aug 08:51:58 08:53:57 11° 268° (W) 08:55:57 435.675
UWE-3 24 Aug 08:55:00 08:57:26 14° 271° (W) 08:59:54 435.000/436.395/437.385
FO-29 24 Aug 09:00:47 09:08:01 43° 83° (E) 09:15:24 435.910
UNISAT 6 24 Aug 09:02:19 09:04:11 12° 90° (E) 09:06:01 437.425
SO-50 24 Aug 09:04:30 09:08:12 23° 69° (ENE) 09:11:57 436.795
PCSat 24 Aug 09:12:44 09:17:52 46° 69° (ENE) 09:23:03 145.827
Max Valier Satellite 24 Aug 09:26:23 09:30:09 81° 282° (WNW) 09:34:00 145.860
ZACube-1 24 Aug 09:29:13 09:30:19 11° 269° (W) 09:31:26 437.345
TIGRISAT 24 Aug 09:34:46 09:38:42 26° 85° (E) 09:42:30 435.000
PRISM 24 Aug 09:45:19 09:48:34 22° 85° (E) 09:51:49 437.425
LO-87 24 Aug 10:00:40 10:03:32 22° 110° (ESE) 10:06:26 145.935 - 145.965
RS-15 24 Aug 10:12:28 10:19:38 19° 280° (W) 10:27:02 29.354- 29.394
EO-88 24 Aug 10:14:22 10:17:25 24° 276° (W) 10:20:31 145.990 - 145.960
ESTCUBE 1 24 Aug 10:19:42 10:23:35 29° 110° (ESE) 10:27:30 437.505/2401.250
DELFI C3 24 Aug 10:20:58 10:23:01 14° 272° (W) 10:25:06 145.870
UNISAT 6 24 Aug 10:36:38 10:41:16 59° 254° (WSW) 10:45:44 437.425
SO-50 24 Aug 10:43:57 10:48:25 39° 233° (SW) 10:52:58 436.795
FO-29 24 Aug 10:45:55 10:52:49 40° 247° (WSW) 10:59:59 435.910
PCSat 24 Aug 10:57:02 11:01:27 25° 231° (SW) 11:05:54 145.827
TIGRISAT 24 Aug 11:11:18 11:15:17 28° 249° (WSW) 11:19:10 435.000
NO-84 24 Aug 11:13:23 11:17:18 42° 52° (NE) 11:21:28 435.350 FM
DUCHIFAT 1 24 Aug 11:17:28 11:19:36 13° 88° (E) 11:21:41 145.980
PRISM 24 Aug 11:20:15 11:23:48 27° 250° (WSW) 11:27:19 437.425
SPROUT 24 Aug 11:32:00 11:36:04 42° 107° (ESE) 11:40:12 437.525
LO-87 24 Aug 11:34:11 11:36:52 20° 275° (W) 11:39:35 145.935 - 145.965
DX 1 24 Aug 11:42:25 11:44:20 13° 116° (ESE) 11:46:15 434.975-435.025
AIST 2D 24 Aug 11:48:13 11:51:44 64° 255° (WSW) 11:55:13 435.315
VELOX 1 24 Aug 11:48:22 11:52:38 52° 107° (ESE) 11:56:59 145.980
50 SAT 24 Aug 11:50:46 11:52:51 16° 111° (ESE) 11:54:57 437.505
M-CUBED/EXP-1 PRIME 24 Aug 11:54:48 11:58:31 56° 74° (ENE) 12:02:29 437.505
ESTCUBE 1 24 Aug 11:56:38 12:00:19 24° 275° (W) 12:04:03 437.505/2401.250
NANOSAT C BR1 24 Aug 12:02:32 12:06:47 52° 80° (E) 12:10:56 145.865
POLYITAN 1 24 Aug 12:10:16 12:14:38 74° 78° (ENE) 12:18:54 437.675
EO-79 24 Aug 12:25:08 12:29:29 74° 256° (WSW) 12:33:45 145.935-145.965
QB50P2 24 Aug 12:25:39 12:29:59 66° 255° (WSW) 12:34:13 145.880/145.840
BUGSAT 1 24 Aug 12:38:38 12:42:29 31° 83° (E) 12:46:13 437.445
UKube-1 24 Aug 12:47:29 12:51:34 42° 108° (ESE) 12:55:43 .
YUBILEINY 24 Aug 12:50:03 12:55:32 17° 116° (ESE) 13:00:59 435.215
NO-84 24 Aug 12:51:11 12:54:58 29° 214° (SW) 12:58:53 435.350 FM
DUCHIFAT 1 24 Aug 12:51:21 12:55:29 46° 253° (WSW) 12:59:33 145.980
SPROUT 24 Aug 13:09:39 13:12:08 15° 272° (W) 13:14:39 437.525
DX 1 24 Aug 13:15:42 13:19:59 57° 281° (W) 13:24:20 434.975-435.025
50 SAT 24 Aug 13:22:29 13:25:17 24° 277° (W) 13:28:07 437.505
VELOX 1 24 Aug 13:27:28 13:29:23 13° 271° (W) 13:31:18 145.980
M-CUBED/EXP-1 PRIME 24 Aug 13:31:44 13:32:34 11° 241° (WSW) 13:33:25 437.505
ITUPSAT 1 24 Aug 13:32:34 13:35:25 16° 116° (ESE) 13:38:16 437.325
Oscar 19 24 Aug 13:33:09 13:38:12 51° 80° (E) 13:43:11 437.125/150
Gurwin Techsat 1B 24 Aug 13:33:15 13:38:06 33° 83° (E) 13:42:53 435.225
NANOSAT C BR1 24 Aug 13:39:58 13:41:59 13° 244° (WSW) 13:43:59 145.865
MOZHAYETS 4 24 Aug 13:47:51 13:50:58 18° 114° (ESE) 13:54:07
BUGSAT 1 24 Aug 14:14:23 14:17:36 21° 248° (WSW) 14:20:46 437.445
UKube-1 24 Aug 14:25:15 14:27:46 15° 273° (W) 14:30:19 .
BEESAT 24 Aug 14:31:17 14:36:02 63° 106° (ESE) 14:40:52 436.000
NO-84 24 Aug 14:33:04 14:33:47 10° 194° (SSW) 14:34:29 435.350 FM
YUBILEINY 24 Aug 14:44:38 14:53:37 89° 92° (E) 15:02:29 435.215
AO-7 24 Aug 14:51:55 14:58:57 29° 84° (E) 15:05:55 .
ITAMSAT 1 24 Aug 15:00:33 15:04:42 23° 85° (E) 15:08:47 435.822/435.867
ITUPSAT 1 24 Aug 15:07:59 15:12:44 55° 281° (W) 15:17:32 437.325
KKS-1 24 Aug 15:12:54 15:14:36 12° 117° (ESE) 15:16:17 437.445
Gurwin Techsat 1B 24 Aug 15:13:18 15:17:54 29° 247° (WSW) 15:22:27 435.225
Oscar 19 24 Aug 15:13:34 15:17:05 19° 244° (WSW) 15:20:34 437.125/150
MOZHAYETS 4 24 Aug 15:23:18 15:27:44 44° 279° (W) 15:32:14
CUBESAT XI-V 24 Aug 15:51:54 15:56:33 72° 105° (ESE) 16:01:14 437.345
BEESAT 3 24 Aug 15:59:07 16:02:55 85° 240° (WSW) 16:06:43 437.485
AO-85 24 Aug 16:11:59 16:17:16 80° 61° (ENE) 16:22:41 145.980
BEESAT 24 Aug 16:12:11 16:14:12 12° 271° (W) 16:16:13 436.000
BEESAT 2 24 Aug 16:20:54 16:24:39 48° 64° (ENE) 16:28:25 435.950
DOVE 4 24 Aug 16:28:19 16:31:01 14° 89° (E) 16:33:45 437.250
ITAMSAT 1 24 Aug 16:39:19 16:44:15 40° 250° (WSW) 16:49:08 435.822/435.867
AO-7 24 Aug 16:43:50 16:52:03 60° 247° (WSW) 17:00:13 .
YUBILEINY 24 Aug 16:44:02 16:49:04 17° 258° (WSW) 16:54:07 435.215
KKS-1 24 Aug 16:46:08 16:50:32 64° 282° (WNW) 16:55:02 437.445
STARS 24 Aug 17:14:46 17:19:11 77° 281° (W) 17:23:40 437.465
CUTE-I 24 Aug 17:34:30 17:38:10 18° 87° (E) 17:41:50 437.470
SO-50 24 Aug 17:37:31 17:40:26 16° 137° (SE) 17:43:19 436.795
NUDT-PHONESAT 24 Aug 17:41:48 17:43:53 14° 87° (E) 17:45:56 437.300
XW-2D 24 Aug 17:48:36 17:51:50 26° 84° (E) 17:55:02 145.860 - 145.880
LilacSat-2 24 Aug 17:48:50 17:52:09 27° 84° (E) 17:55:23 437.200
NO-84 24 Aug 17:49:05 17:52:16 19° 152° (SSE) 17:55:20 435.350 FM
STRAND 1 24 Aug 17:49:44 17:53:18 19° 116° (ESE) 17:56:52 437.568
AO-85 24 Aug 17:54:51 17:58:23 17° 223° (SW) 18:01:56 145.980
XW-2B 24 Aug 17:59:33 18:03:04 34° 83° (E) 18:06:31 145.730 - 145.750
BEESAT 2 24 Aug 18:00:23 18:02:38 15° 227° (SW) 18:04:54 435.950
PCSat 24 Aug 18:02:32 18:07:08 27° 128° (SE) 18:11:42 145.827
DOVE 4 24 Aug 18:03:58 18:08:59 63° 255° (WSW) 18:14:10 437.250
XW-2C 24 Aug 18:18:37 18:22:25 64° 80° (E) 18:26:09 145.795 - 145.815
XW-2F 24 Aug 18:27:47 18:31:36 80° 79° (ENE) 18:35:21 145.980 - 146.000
HO-68 24 Aug 18:28:54 18:34:24 23° 87° (E) 18:39:49 435.675
CUTE 1.7 + AOD 2 24 Aug 18:35:53 18:38:38 17° 87° (E) 18:41:21 437.475
AO-7 24 Aug 18:40:01 18:43:03 12° 227° (SW) 18:46:05 .
KAITUO 1B 24 Aug 18:46:52 18:50:38 72° 257° (WSW) 18:54:20 145.475/437.950
UWE-3 24 Aug 19:09:46 19:11:43 13° 90° (E) 19:13:38 435.000/436.395/437.385
CUTE-I 24 Aug 19:13:13 19:18:30 53° 252° (WSW) 19:23:44 437.470
NUDT-PHONESAT 24 Aug 19:14:29 19:17:50 31° 252° (WSW) 19:21:09 437.300
FO-29 24 Aug 19:15:28 19:17:40 12° 125° (SE) 19:19:57 435.910
SEEDS 24 Aug 19:15:58 19:19:40 29° 84° (E) 19:23:21 437.485
SO-50 24 Aug 19:16:41 19:21:25 71° 298° (WNW) 19:26:03 436.795
XW-2A 24 Aug 19:20:29 19:23:17 23° 84° (E) 19:26:03 145.665 - 145.685
CUBEBUG 2 24 Aug 19:22:43 19:26:57 32° 84° (E) 19:31:01 437.445
XW-2D 24 Aug 19:23:07 19:25:49 19° 249° (WSW) 19:28:31 145.860 - 145.880
LilacSat-2 24 Aug 19:23:32 19:26:11 18° 249° (WSW) 19:28:50 437.200
NO-84 24 Aug 19:26:02 19:30:18 78° 313° (NW) 19:34:13 435.350 FM
STRAND 1 24 Aug 19:27:02 19:32:01 50° 280° (W) 19:37:07 437.568
O/OREOS (USA 219) 24 Aug 19:30:45 19:33:50 18° 80° (E) 19:36:58 437.305
XW-2B 24 Aug 19:34:46 19:36:55 15° 247° (WSW) 19:39:03 145.730 - 145.750
Tancredo 1 24 Aug 19:39:16 19:42:09 60° 218° (SW) 19:45:05 437.200
ZACube-1 24 Aug 19:40:55 19:43:24 15° 89° (E) 19:45:51 437.345
PCSat 24 Aug 19:45:33 19:50:38 41° 291° (WNW) 19:55:42 145.827
AAUSAT CUBESAT 2 24 Aug 19:50:28 19:54:15 32° 83° (E) 19:57:58 437.432
AO-73 24 Aug 19:59:10 20:02:32 21° 86° (E) 20:05:49 145.935
CUTE 1.7 + AOD 2 24 Aug 20:10:39 20:14:34 36° 252° (WSW) 20:18:27 437.475
ISS 24 Aug 20:13:41 20:16:56 62° 42° (NE) 20:20:13 437.550
RS-15 24 Aug 20:13:42 20:18:47 14° 82° (E) 20:23:49 29.354- 29.394
HO-68 24 Aug 20:15:23 20:22:32 63° 250° (WSW) 20:29:37 435.675
nSIGHT-1 24 Aug 20:17:12 20:20:27 74° 42° (NE) 20:23:44 .
TIGRISAT 24 Aug 20:31:47 20:35:09 20° 114° (ESE) 20:38:34 435.000
PRISM 24 Aug 20:34:07 20:35:59 13° 115° (ESE) 20:37:51 437.425
Oscar 11 24 Aug 20:39:09 20:43:20 43° 82° (E) 20:47:27 .
UWE-3 24 Aug 20:44:01 20:48:31 54° 254° (WSW) 20:52:51 435.000/436.395/437.385
SEEDS 24 Aug 20:51:59 20:55:09 21° 249° (WSW) 20:58:18 437.485
XW-2A 24 Aug 20:53:36 20:55:49 16° 249° (WSW) 20:58:00 145.665 - 145.685
FO-29 24 Aug 20:56:01 21:01:33 87° 106° (ESE) 21:07:49 435.910
CUBEBUG 2 24 Aug 20:59:36 21:03:20 23° 248° (WSW) 21:06:57 437.445
Max Valier Satellite 24 Aug 21:00:42 21:01:25 10° 89° (E) 21:02:08 145.860
O/OREOS (USA 219) 24 Aug 21:08:31 21:12:53 41° 244° (WSW) 21:17:19 437.305
ZACube-1 24 Aug 21:15:40 21:19:55 44° 253° (WSW) 21:24:01 437.345
Tancredo 1 24 Aug 21:16:57 21:17:50 11° 200° (SSW) 21:18:44 437.200
AAUSAT CUBESAT 2 24 Aug 21:26:30 21:29:26 19° 248° (WSW) 21:32:22 437.432
UNISAT 6 24 Aug 21:32:44 21:37:23 86° 285° (WNW) 21:42:11 437.425
AO-73 24 Aug 21:34:53 21:38:47 30° 250° (WSW) 21:42:34 145.935
JUGNU 24 Aug 21:44:17 21:46:33 12° 5° (N) 21:48:49 437.505
EO-88 24 Aug 21:44:18 21:47:35 29° 83° (E) 21:50:50 145.990 - 145.960
ISS 24 Aug 21:51:15 21:53:41 18° 205° (SSW) 21:56:08 437.550
nSIGHT-1 24 Aug 21:54:55 21:57:09 17° 204° (SSW) 21:59:24 .
DELFI C3 24 Aug 21:57:15 22:01:18 83° 78° (ENE) 22:05:18 145.870
PRISM 24 Aug 22:06:50 22:10:48 48° 280° (W) 22:14:48 437.425
HO-68 24 Aug 22:06:59 22:08:48 11° 231° (SW) 22:10:38 435.675
TIGRISAT 24 Aug 22:07:07 22:11:29 40° 278° (W) 22:15:58 435.000
Oscar 11 24 Aug 22:16:27 22:19:04 16° 246° (WSW) 22:21:40 .
RS-15 24 Aug 22:18:12 22:29:09 77° 64° (ENE) 22:40:02 29.354- 29.394
AIST 2D 24 Aug 22:20:33 22:23:43 30° 107° (ESE) 22:26:56 435.315
Max Valier Satellite 24 Aug 22:31:53 22:35:29 43° 254° (WSW) 22:39:00 145.860
M-CUBED/EXP-1 PRIME 24 Aug 22:39:34 22:42:50 47° 111° (ESE) 22:46:02 437.505
FO-29 24 Aug 22:46:51 22:47:41 10° 265° (W) 22:48:31 435.910
NANOSAT C BR1 24 Aug 22:52:41 22:56:26 30° 109° (ESE) 23:00:16 145.865
POLYITAN 1 24 Aug 23:00:38 23:04:42 42° 108° (ESE) 23:08:50 437.675
LO-87 24 Aug 23:01:50 23:05:16 34° 82° (E) 23:08:38 145.935 - 145.965
EO-79 24 Aug 23:15:07 23:19:21 63° 105° (ESE) 23:23:40 145.935-145.965
QB50P2 24 Aug 23:15:46 23:20:03 71° 104° (ESE) 23:24:24 145.880/145.840
EO-88 24 Aug 23:18:43 23:20:59 16° 248° (WSW) 23:23:13 145.990 - 145.960
